Regional Weather Roundup
Issued by NWS

Home | Current Version | Previous Version | Text Only | Print | Product List | Glossary Off
Versions: 1 2 3 4 5 6 7 8 9 10 11 12 13 14 15 16 17 18 19 20 21 22 23 24 25 26 27 28 29 30 31 32 33 34 35 36 37 38 39 40 41 42 43 44 45 46 47 48 49 50

000
ASUS43 KMPX 290510
RWRMN
WEATHER ROUNDUP FOR MINNESOTA
NATIONAL WEATHER SERVICE TWIN CITIES/CHANHASSEN MN
1200 AM CDT MON AUG 29 2016


NOTE: "FAIR" INDICATES FEW OR NO CLOUDS BELOW 12,000 FEET WITH NO
SIGNIFICANT WEATHER AND/OR OBSTRUCTIONS TO VISIBILITY. N/A MEANS
CURRENT SKY AND/OR WEATHER CONDITIONS ARE NOT AVAILABLE.

MNZ060>063-068>070-290600-
   Twin Cities Metro

CITY           SKY/WX    TMP DP  RH WIND       PRES   REMARKS
TWIN CITIES    PTCLDY    73  67  81 SE6       30.13S
ST PAUL        CLEAR     71  69  93 SE7       30.13S
CRYSTAL        CLEAR     73  66  78 SE6       30.12R
BLAINE         CLEAR     73  72  94 SE6       30.13S
LAKEVILLE      CLEAR     64  64 100 SE3       30.14S
EDEN PRAIRIE   CLEAR     74  68  81 SE8       30.12R
LAKEVILLE      CLEAR     64  64 100 SE3       30.14S
SOUTH ST PAUL  CLEAR     73  70  91 S5        30.14R
LAKE ELMO      FAIR      70  68  94 CALM      30.16S
$$
MNZ001>005-007-008-013>017-022>024-027-028-290600-
   Northwest Minnesota

CITY           SKY/WX    TMP DP  RH WIND       PRES   REMARKS
BEMIDJI        LGT RAIN  71  69  95 S13       30.00F
HALLOCK        CLOUDY    72  66  83 SE8       29.97R
ROSEAU         CLOUDY    68  63  83 E5        29.99F
WARROAD        CLOUDY    64  61  88 SE8       30.02F
THIEF RVR FALL TSTM      69  63  81 CALM      30.00F
CROOKSTON      CLOUDY    70  63  78 SE8       29.97F
FOSSTON        TSTM      66  61  82 S14G20    29.99S
DETROIT LAKES  TSTM      75  70  83 S14         N/A
MOORHEAD       CLOUDY    79  72  78 S9G17     29.96S
PARK RAPIDS    CLOUDY    75  68  78 S16       30.03F
MAHNOMEN       TSTM      64  62  94 E14G23    30.04R
$$
MNZ006-009>011-018-025>026-290600-
   North Central Minnesota

CITY           SKY/WX    TMP DP  RH WIND       PRES   REMARKS
BAUDETTE       CLOUDY    63  61  93 SE13      30.04S
FLAG ISLAND    CLOUDY    66  63  88 SE3       30.01S
INTL FALLS     LGT RAIN  63  60  90 SE15G22   30.03S
WASKISH        TSTM      64  63  94 E15G22    30.07F
BIG FORK       LGT RAIN  70  64  83 E6        30.09R
LONGVILLE      CLOUDY    72  68  88 SE8       30.05F
GRAND RAPIDS   CLOUDY    69  66  90 S14       30.11S
CRANE LAKE     CLOUDY    64  63  94 NE9G18    30.10F VSB 1/4
ORR            CLOUDY    64  61  88 CALM      30.10R
COOK           CLOUDY    64  63  94 SE3       30.11F
WALKER         FAIR      72  68  87 S10G16    30.04F
$$
MNZ012-019>021-037-290600-
   Northeast Minnesota

CITY           SKY/WX    TMP DP  RH WIND       PRES   REMARKS
DULUTH         CLOUDY    64  63  96 E12       30.14F
ELY            CLOUDY    64  59  82 SE13      30.13S
HIBBING        CLOUDY    64  61  90 SE8       30.12S
EVELETH        CLOUDY    64  61  91 SE5       30.14S
DULUTH HARBOR  CLOUDY    66  64  94 NE13      30.13F
TWO HARBORS    CLOUDY    64  61  88 NE5       30.14F
SILVER BAY     CLOUDY    63  63 100 NE3       30.15F FOG
GRAND MARAIS     N/A     63  60  90 NE3       30.18F
G MARAIS ARPRT CLOUDY    57  54  88 CALM      30.22F
$$
MNZ029>031-032-039>041-046>048-054>057-064-290600-
   West Central Minnesota

CITY           SKY/WX    TMP DP  RH WIND       PRES   REMARKS
FERGUS FALLS   PTCLDY    75  73  94 S12       30.02S
WHEATON        PTCLDY    77  73  88 SE10G17   30.02S
MORRIS         CLEAR     73  72  94 SE9       30.04S
ALEXANDRIA     CLEAR     74  69  85 S13       30.08F
ELBOW LAKE     FAIR      74  72  91 S17       30.03F
WADENA         CLOUDY    73  66  78 S12G20    30.04F
GLENWOOD       CLEAR     73  70  88 S12       30.09S
APPLETON       CLEAR     75  72  88 S8        30.04R
BENSON         CLEAR     73  68  83 S9        30.06S
ORTONVILLE     CLEAR     73  70  88 CALM      30.03S
MADISON        CLEAR     73  72  94 S6        30.05R
WILLMAR        FAIR      73  70  88 SE8       30.10S
$$
MNZ033>034-036-042>043-049>051-058-059-290600-
   Central Minnesota

CITY           SKY/WX    TMP DP  RH WIND       PRES   REMARKS
ST CLOUD       CLEAR     70  69  97 SE6       30.10F
SAUK CENTRE    FAIR      70  68  92 SE9       30.09S
PAYNESVILLE    CLEAR     73  72  99 SE9       30.10F
AITKIN         CLOUDY    72  64  78 S9        30.08F
PINE RIVER     CLOUDY    72  70  94 SE9       30.08F
BRAINERD       PTCLDY    71  68  90 SE9       30.08F
STAPLES        CLOUDY    72  66  83 S12G17    30.05F
LONG PRAIRIE   FAIR      70  68  94 SE8       30.09F
LITTLE FALLS   CLOUDY    70  66  88 SE8       30.09F
LITCHFIELD     CLEAR     75  72  88 SE5       30.11F
BUFFALO        CLEAR     71  67  85 SE3       30.13S
MAPLE LAKE     CLEAR     71  69  93 CALM      30.13S
HUTCHINSON     CLOUDY    71  70  96 SE5       30.13R
$$
MNZ037-044-045-052-053-290600-
   East Central Minnesota

CITY           SKY/WX    TMP DP  RH WIND       PRES   REMARKS
PRINCETON      CLOUDY    72  68  88 SE6       30.11F
MORA           CLOUDY    68  64  88 SE3       30.13F
CAMBRIDGE      CLOUDY    73  64  73 SE6       30.11F
RUSH CITY      CLOUDY    67  65  93 SE3       30.13F
MOOSE LAKE     CLOUDY    63  61  94 CALM      30.10F
HINCKLEY       FAIR      68  66  94 SE5       30.13F
CLOQUET        FOG       64  63  94 E5        30.14F VSB 3/4
MCGREGOR       CLOUDY    68  64  88 SE9       30.10F
$$
MNZ071>073-080-081-089-090-097-098-290600-
   Southwest Minnesota

CITY           SKY/WX    TMP DP  RH WIND       PRES   REMARKS
MONTEVIDEO     CLEAR     73  72  94 S9        30.08S
GRANITE FALLS  CLEAR     74  71  89 SE8       30.09S
CANBY          CLEAR     76  72  85 SE7       30.06S
MARSHALL       CLEAR     75  71  87 S13       30.08R
REDWOOD FALLS  CLEAR     73  68  84 S10       30.09R
OLIVIA         CLEAR     72  68  88 SE7       30.09S
PIPESTONE      CLEAR     73  66  78 S10       30.11S
WINDOM         PTCLDY    72  66  83 S6        30.12S
WORTHINGTON    CLEAR     69  66  90 S8        30.13S
JACKSON          N/A     70  63  78 S9        30.14S
TRACY          CLEAR     74  70  87 SW9       30.10S
SLAYTON        CLEAR     70  68  94 S10       30.12F
$$
MNZ065>067-074>077-082>085-091>093-290600-
   South Central Minnesota

CITY           SKY/WX    TMP DP  RH WIND       PRES   REMARKS
MANKATO        CLOUDY    72  68  88 SE8       30.13S
NEW ULM          N/A     72  72 100 SE6       30.11S
ST JAMES       PTCLDY    66  64  94 SE6       30.12F
FAIRMONT       PTCLDY    70  67  90 S6        30.14R
GLENCOE        CLEAR     72  71  95 SE7       30.12R
FARIBAULT      CLOUDY    72  70  94 SE7       30.15S
OWATONNA       PTCLDY    72  68  88 SE8       30.16R
WASECA         PTCLDY    72  70  94 SE7       30.16S
ALBERT LEA     PTCLDY    73  72  94 S8        30.16S
$$
MNZ078>079-086>088-094>096-290600-
   Southeast Minnesota

CITY           SKY/WX    TMP DP  RH WIND       PRES   REMARKS
ROCHESTER      CLOUDY    70  69  97 SE6       30.18R
RED WING       CLOUDY    73  70  88 SE7       30.15R
STANTON        CLOUDY    75  70  83 S10       30.13S
DODGE CENTER   PTCLDY    70  66  88 SE6       30.17S
WINONA         PTCLDY    70  68  94 CALM      30.17S
AUSTIN         PTCLDY    72  70  94 SE5       30.17S
PRESTON        PTCLDY    70  67  91 S6        30.19S
$$
ABBREVIATIONS USED IN REMARKS
   TC - TEMPERATURES IN CELSIUS
  WCI - WIND CHILL INDEX
   HX - HEAT INDEX
  VSB - VISIBILITY
$$




USA.gov is the U.S. government's official web portal to all federal, state and local government web resources and services.